Location: Asheville, NC
(35.6000°N, 82.5500°W)
Time: 00:06:13
(UTC-05:00)

CUTE-I - Pass Details

Date: 07 January 2018
Orbit: 810 x 826 km, 98.7° (Epoch: 18 January)

Event Time Altitude Azimuth Distance (km) Brightness Sun altitude
Rises 06:51:32 0° 13° (NNE) 3,334 ? -9.9°
Reaches altitude 10° 06:53:52 10° 14° (NNE) 2,399 ? -9.5°
Maximum altitude 06:59:12 86° 104° (ESE) 816 ? -8.4°
Drops below altitude 10° 07:04:29 10° 193° (SSW) 2,389 ? -7.4°
Sets 07:06:49 0° 194° (SSW) 3,318 ? -7.0°
